When you browse on this site, cookies collect data to enhance your experience and personalize the content and advertising you see.
Visit our Privacy Policy to learn more. By continuing to use the site, you agree to this use of cookies and data.
  • In Czech Republic
  • List of Countries
  • For 7 days
  • Water Temperature
  • Satellite Maps
  • Weather Map
  • Weather Widgets
  • user-avatar
    Login

    Hourly Weather Guadalajara

    Today, 24 January, Thursday

    Time Temperature Precipitation Wind Pressure Humidity
    00:00 +14°C° 0 mm 0 mps 632 mmHg 49%
    01:00 +13°C° 0 mm 0 mps 631 mmHg 50%
    02:00 +13°C° 0 mm 0 mps 631 mmHg 52%
    03:00 +13°C° 0 mm 0 mps 631 mmHg 54%
    04:00 +12°C° 0 mm 0 mps 631 mmHg 55%
    05:00 +12°C° 0 mm 0 mps 631 mmHg 57%
    06:00 +13°C° 0 mm 0 mps 632 mmHg 53%
    07:00 +15°C° 0 mm 0 mps 633 mmHg 49%
    08:00 +16°C° 0 mm 0 mps 634 mmHg 46%
    09:00 +21°C° 0 mm 1 mps 635 mmHg 39%
    10:00 +24°C° 0 mm 1 mps 636 mmHg 32%
    11:00 +28°C° 0 mm 1 mps 637 mmHg 26%
    12:00 +28°C° 0 mm 2 mps 636 mmHg 23%
    13:00 +28°C° 0 mm 2 mps 635 mmHg 20%
    14:00 +29°C° 0 mm 3 mps 635 mmHg 17%
    15:00 +28°C° 0 mm 3 mps 635 mmHg 18%
    16:00 +27°C° 0 mm 3 mps 634 mmHg 20%
    17:00 +26°C° 0 mm 3 mps 634 mmHg 21%
    18:00 +24°C° 0 mm 2 mps 634 mmHg 26%
    19:00 +21°C° 0 mm 2 mps 634 mmHg 30%
    20:00 +19°C° 0 mm 1 mps 633 mmHg 34%
    21:00 +18°C° 0 mm 1 mps 633 mmHg 38%
    22:00 +18°C° 0 mm 1 mps 633 mmHg 42%
    23:00 +15°C° 0 mm 0 mps 633 mmHg 46%

    Tomorrow, 25 January, Friday

    Time Temperature Precipitation Wind Pressure Humidity
    00:00 +14°C° 0 mm 0 mps 633 mmHg 50%
    01:00 +14°C° 0 mm 0 mps 632 mmHg 54%
    02:00 +13°C° 0 mm 0 mps 632 mmHg 57%
    03:00 +13°C° 0 mm 0 mps 632 mmHg 60%
    04:00 +12°C° 0 mm 0 mps 632 mmHg 63%
    05:00 +12°C° 0 mm 0 mps 632 mmHg 65%
    06:00 +13°C° 0 mm 0 mps 633 mmHg 61%
    07:00 +15°C° 0 mm 0 mps 634 mmHg 58%
    08:00 +16°C° 0 mm 0 mps 634 mmHg 54%
    09:00 +19°C° 0 mm 0 mps 635 mmHg 45%
    10:00 +23°C° 0 mm 0 mps 636 mmHg 37%
    11:00 +27°C° 0 mm 0 mps 637 mmHg 28%
    12:00 +29°C° 0 mm 1 mps 637 mmHg 25%
    13:00 +29°C° 0 mm 2 mps 636 mmHg 22%
    14:00 +29°C° 0 mm 2 mps 635 mmHg 20%
    15:00 +28°C° 0 mm 3 mps 634 mmHg 21%
    16:00 +27°C° 0 mm 3 mps 634 mmHg 22%
    17:00 +26°C° 0 mm 3 mps 634 mmHg 23%
    18:00 +24°C° 0 mm 2 mps 634 mmHg 27%
    19:00 +21°C° 0 mm 2 mps 634 mmHg 31%
    20:00 +20°C° 0 mm 1 mps 634 mmHg 34%
    21:00 +19°C° 0 mm 1 mps 634 mmHg 37%
    22:00 +18°C° 0 mm 1 mps 633 mmHg 40%
    23:00 +16°C° 0 mm 1 mps 633 mmHg 43%

    Day after tomorrow, 26 January, Saturday

    Time Temperature Precipitation Wind Pressure Humidity
    00:00 +15°C° 0 mm 1 mps 633 mmHg 46%
    01:00 +15°C° 0 mm 1 mps 633 mmHg 50%
    02:00 +14°C° 0 mm 1 mps 632 mmHg 54%
    03:00 +14°C° 0 mm 1 mps 632 mmHg 57%
    04:00 +13°C° 0 mm 0 mps 632 mmHg 60%
    05:00 +12°C° 0 mm 0 mps 632 mmHg 63%
    06:00 +13°C° 0 mm 0 mps 632 mmHg 60%
    07:00 +14°C° 0 mm 0 mps 633 mmHg 58%
    08:00 +16°C° 0 mm 1 mps 634 mmHg 55%
    09:00 +20°C° 0 mm 1 mps 635 mmHg 44%
    10:00 +23°C° 0 mm 2 mps 635 mmHg 33%
    11:00 +25°C° 0 mm 3 mps 636 mmHg 23%
    12:00 +26°C° 0 mm 3 mps 635 mmHg 20%
    13:00 +27°C° 0 mm 4 mps 635 mmHg 18%
    14:00 +27°C° 0 mm 5 mps 634 mmHg 15%
    15:00 +26°C° 0 mm 4 mps 634 mmHg 15%
    16:00 +25°C° 0 mm 4 mps 633 mmHg 15%
    17:00 +24°C° 0 mm 3 mps 633 mmHg 15%
    18:00 +21°C° 0 mm 3 mps 632 mmHg 17%
    19:00 +19°C° 0 mm 2 mps 632 mmHg 20%
    20:00 +16°C° 0 mm 1 mps 632 mmHg 23%
    21:00 +15°C° 0 mm 1 mps 632 mmHg 26%
    22:00 +14°C° 0 mm 1 mps 632 mmHg 29%
    23:00 +13°C° 0 mm 1 mps 632 mmHg 32%

    27 January, Sunday

    Time Temperature Precipitation Wind Pressure Humidity
    00:00 +12°C° 0 mm 1 mps 632 mmHg 34%
    01:00 +12°C° 0 mm 1 mps 632 mmHg 36%
    02:00 +11°C° 0 mm 1 mps 632 mmHg 39%
    03:00 +11°C° 0 mm 1 mps 632 mmHg 39%
    04:00 +10°C° 0 mm 1 mps 632 mmHg 40%
    05:00 +10°C° 0 mm 1 mps 632 mmHg 40%
    06:00 +11°C° 0 mm 1 mps 632 mmHg 37%
    07:00 +12°C° 0 mm 2 mps 633 mmHg 33%
    08:00 +13°C° 0 mm 2 mps 634 mmHg 29%
    09:00 +14°C° 0 mm 3 mps 634 mmHg 25%
    10:00 +17°C° 0 mm 3 mps 635 mmHg 20%
    11:00 +20°C° 0 mm 4 mps 635 mmHg 15%
    12:00 +21°C° 0 mm 4 mps 634 mmHg 14%
    13:00 +22°C° 0 mm 4 mps 634 mmHg 13%
    14:00 +24°C° 0 mm 3 mps 633 mmHg 12%
    15:00 +24°C° 0 mm 3 mps 633 mmHg 13%
    16:00 +23°C° 0 mm 2 mps 633 mmHg 14%
    17:00 +23°C° 0 mm 2 mps 632 mmHg 15%
    18:00 +20°C° 0 mm 1 mps 632 mmHg 17%
    19:00 +18°C° 0 mm 1 mps 632 mmHg 19%
    20:00 +15°C° 0 mm 1 mps 632 mmHg 21%
    21:00 +14°C° 0 mm 1 mps 632 mmHg 23%
    22:00 +14°C° 0 mm 1 mps 632 mmHg 25%
    23:00 +13°C° 0 mm 1 mps 632 mmHg 27%

    28 January, Monday

    Time Temperature Precipitation Wind Pressure Humidity
    00:00 +12°C° 0 mm 1 mps 631 mmHg 32%
    01:00 +12°C° 0 mm 1 mps 631 mmHg 36%
    02:00 +11°C° 0 mm 1 mps 630 mmHg 41%
    03:00 +11°C° 0 mm 1 mps 630 mmHg 46%
    04:00 +10°C° 0 mm 1 mps 630 mmHg 51%
    05:00 +10°C° 0 mm 1 mps 630 mmHg 57%
    06:00 +11°C° 0 mm 1 mps 631 mmHg 55%
    07:00 +12°C° 0 mm 1 mps 632 mmHg 54%
    08:00 +14°C° 0 mm 1 mps 632 mmHg 53%
    09:00 +18°C° 0 mm 1 mps 633 mmHg 42%
    10:00 +22°C° 0 mm 1 mps 634 mmHg 32%
    11:00 +26°C° 0 mm 1 mps 635 mmHg 22%
    12:00 +26°C° 0 mm 2 mps 635 mmHg 18%
    13:00 +27°C° 0 mm 2 mps 634 mmHg 14%
    14:00 +27°C° 0 mm 3 mps 633 mmHg 10%
    15:00 +26°C° 0 mm 3 mps 633 mmHg 11%
    16:00 +25°C° 0 mm 3 mps 632 mmHg 12%
    17:00 +24°C° 0 mm 2 mps 632 mmHg 13%
    18:00 +21°C° 0 mm 2 mps 632 mmHg 16%
    19:00 +18°C° 0 mm 2 mps 632 mmHg 19%
    20:00 +16°C° 0 mm 1 mps 632 mmHg 23%
    21:00 +15°C° 0 mm 1 mps 631 mmHg 28%
    22:00 +14°C° 0 mm 1 mps 631 mmHg 33%
    23:00 +13°C° 0 mm 1 mps 631 mmHg 38%

    29 January, Tuesday

    Time Temperature Precipitation Wind Pressure Humidity
    00:00 +12°C° 0 mm 1 mps 631 mmHg 44%
    01:00 +10°C° 0 mm 0 mps 630 mmHg 50%
    02:00 +9°C° 0 mm 0 mps 630 mmHg 56%
    03:00 +9°C° 0 mm 0 mps 630 mmHg 60%
    04:00 +8°C° 0 mm 0 mps 630 mmHg 64%
    05:00 +8°C° 0 mm 0 mps 629 mmHg 68%
    06:00 +10°C° 0 mm 0 mps 630 mmHg 63%
    07:00 +11°C° 0 mm 0 mps 631 mmHg 58%
    08:00 +14°C° 0 mm 1 mps 632 mmHg 53%
    09:00 +17°C° 0 mm 0 mps 633 mmHg 42%
    10:00 +21°C° 0 mm 0 mps 634 mmHg 30%
    11:00 +25°C° 0 mm 0 mps 635 mmHg 19%
    12:00 +28°C° 0 mm 1 mps 635 mmHg 16%
    13:00 +28°C° 0 mm 1 mps 634 mmHg 14%
    14:00 +29°C° 0 mm 2 mps 633 mmHg 11%
    15:00 +28°C° 0 mm 2 mps 633 mmHg 11%
    16:00 +27°C° 0 mm 2 mps 632 mmHg 11%
    17:00 +26°C° 0 mm 2 mps 632 mmHg 12%
    18:00 +23°C° 0 mm 2 mps 632 mmHg 14%
    19:00 +20°C° 0 mm 1 mps 632 mmHg 16%
    20:00 +18°C° 0 mm 1 mps 632 mmHg 19%
    21:00 +16°C° 0 mm 1 mps 631 mmHg 24%
    22:00 +15°C° 0 mm 1 mps 631 mmHg 30%
    23:00 +14°C° 0 mm 1 mps 631 mmHg 35%
    Show more